TimeEDT,TemperatureF,Dew PointF,Humidity,Sea Level PressureIn,VisibilityMPH,Wind Direction,Wind SpeedMPH,Gust SpeedMPH,PrecipitationIn,Events,Conditions,WindDirDegrees,DateUTC
12:06 AM,82.4,77.0,84,30.20,10.0,West,3.5,-,N/A,,Clear,260,2013-07-16 04:06:00
12:26 AM,82.4,75.2,79,30.20,10.0,West,4.6,-,N/A,,Clear,280,2013-07-16 04:26:00
12:46 AM,82.4,75.2,79,30.20,10.0,Calm,Calm,-,N/A,,Clear,0,2013-07-16 04:46:00
1:06 AM,82.4,73.4,74,30.20,10.0,West,3.5,-,N/A,,Clear,270,2013-07-16 05:06:00
1:26 AM,82.4,73.4,74,30.19,10.0,WNW,5.8,-,N/A,,Clear,290,2013-07-16 05:26:00
1:46 AM,82.4,71.6,70,30.19,10.0,West,4.6,-,N/A,,Clear,280,2013-07-16 05:46:00
2:06 AM,82.4,73.4,74,30.18,10.0,West,4.6,-,N/A,,Clear,280,2013-07-16 06:06:00
2:26 AM,82.4,71.6,70,30.18,10.0,West,4.6,-,N/A,,Clear,280,2013-07-16 06:26:00
2:46 AM,82.4,71.6,70,30.18,10.0,West,4.6,-,N/A,,Clear,280,2013-07-16 06:46:00
3:06 AM,82.4,71.6,70,30.18,10.0,West,5.8,-,N/A,,Scattered Clouds,280,2013-07-16 07:06:00
3:26 AM,82.4,71.6,70,30.18,10.0,West,5.8,-,N/A,,Scattered Clouds,280,2013-07-16 07:26:00
3:46 AM,80.6,71.6,74,30.18,10.0,West,4.6,-,N/A,,Clear,280,2013-07-16 07:46:00
4:06 AM,80.6,73.4,79,30.18,10.0,WNW,5.8,-,N/A,,Clear,290,2013-07-16 08:06:00
4:26 AM,80.6,71.6,74,30.18,10.0,Calm,Calm,-,N/A,,Clear,0,2013-07-16 08:26:00
4:47 AM,80.6,71.6,74,30.18,10.0,NW,3.5,-,N/A,,Clear,310,2013-07-16 08:47:00
5:07 AM,80.6,71.6,74,30.19,10.0,Calm,Calm,-,N/A,,Clear,0,2013-07-16 09:07:00
5:27 AM,80.6,71.6,74,30.19,10.0,NW,3.5,-,N/A,,Clear,320,2013-07-16 09:27:00
5:47 AM,80.6,73.4,79,30.20,10.0,NW,3.5,-,N/A,,Clear,320,2013-07-16 09:47:00
6:07 AM,80.6,73.4,79,30.20,10.0,NW,5.8,-,N/A,,Clear,310,2013-07-16 10:07:00
6:27 AM,80.6,73.4,79,30.20,10.0,NW,5.8,-,N/A,,Scattered Clouds,320,2013-07-16 10:27:00
6:47 AM,80.6,73.4,79,30.20,10.0,NNW,4.6,-,N/A,,Clear,330,2013-07-16 10:47:00
7:01 AM,80.6,73.4,79,30.21,10.0,NNW,5.8,-,N/A,,Clear,330,2013-07-16 11:01:00
7:27 AM,82.4,71.6,70,30.20,10.0,North,8.1,-,N/A,,Clear,350,2013-07-16 11:27:00
7:47 AM,82.4,73.4,74,30.21,10.0,NNW,8.1,-,N/A,,Clear,340,2013-07-16 11:47:00
8:07 AM,82.4,73.4,74,30.21,10.0,North,5.8,-,N/A,,Clear,350,2013-07-16 12:07:00
8:27 AM,82.4,73.4,74,30.22,10.0,North,5.8,-,N/A,,Clear,360,2013-07-16 12:27:00
8:47 AM,82.4,73.4,74,30.22,10.0,North,8.1,-,N/A,,Clear,350,2013-07-16 12:47:00
9:07 AM,84.2,73.4,70,30.22,10.0,NNW,10.4,-,N/A,,Clear,340,2013-07-16 13:07:00
9:27 AM,84.2,73.4,70,30.22,10.0,North,6.9,-,N/A,,Clear,350,2013-07-16 13:27:00
9:47 AM,84.2,71.6,66,30.22,10.0,North,8.1,-,N/A,,Clear,350,2013-07-16 13:47:00
10:07 AM,84.2,71.6,66,30.22,10.0,NNW,9.2,-,N/A,,Clear,340,2013-07-16 14:07:00
10:27 AM,86.0,71.6,62,30.23,10.0,North,10.4,16.1,N/A,,Clear,350,2013-07-16 14:27:00
10:47 AM,86.0,69.8,58,30.23,10.0,North,9.2,-,N/A,,Clear,360,2013-07-16 14:47:00
11:07 AM,86.0,71.6,62,30.23,10.0,North,9.2,-,N/A,,Clear,350,2013-07-16 15:07:00
11:27 AM,86.0,69.8,58,30.22,10.0,North,10.4,-,N/A,,Clear,350,2013-07-16 15:27:00
11:44 AM,87.8,69.8,55,30.22,10.0,North,8.1,-,N/A,,Clear,350,2013-07-16 15:44:00
12:07 PM,86.0,69.8,58,30.22,10.0,North,9.2,-,N/A,,Clear,350,2013-07-16 16:07:00
12:27 PM,87.8,69.8,55,30.22,10.0,North,8.1,-,N/A,,Clear,350,2013-07-16 16:27:00
12:47 PM,87.8,68.0,52,30.22,10.0,NNW,9.2,-,N/A,,Clear,340,2013-07-16 16:47:00
1:07 PM,87.8,68.0,52,30.21,10.0,North,9.2,-,N/A,,Clear,360,2013-07-16 17:07:00
1:28 PM,87.8,68.0,52,30.21,10.0,NNW,6.9,-,N/A,,Clear,340,2013-07-16 17:28:00
1:48 PM,87.8,68.0,52,30.20,10.0,NNW,5.8,-,N/A,,Clear,330,2013-07-16 17:48:00
2:08 PM,89.6,68.0,49,30.20,10.0,NNW,8.1,-,N/A,,Clear,340,2013-07-16 18:08:00
2:28 PM,89.6,68.0,49,30.20,10.0,NNW,6.9,-,N/A,,Clear,340,2013-07-16 18:28:00
2:48 PM,89.6,68.0,49,30.19,10.0,NNW,5.8,-,N/A,,Clear,340,2013-07-16 18:48:00
3:08 PM,89.6,66.2,46,30.19,10.0,NW,4.6,-,N/A,,Clear,320,2013-07-16 19:08:00
3:17 PM,89.6,68.0,49,30.19,10.0,North,4.6,-,N/A,,Clear,360,2013-07-16 19:17:00
3:48 PM,91.4,66.2,43,30.18,10.0,North,5.8,-,N/A,,Clear,350,2013-07-16 19:48:00
4:08 PM,91.4,66.2,43,30.18,10.0,North,5.8,-,N/A,,Clear,360,2013-07-16 20:08:00
4:28 PM,91.4,66.2,43,30.17,10.0,North,6.9,-,N/A,,Clear,10,2013-07-16 20:28:00
4:48 PM,91.4,64.4,41,30.17,10.0,NNE,5.8,-,N/A,,Clear,30,2013-07-16 20:48:00
5:08 PM,91.4,64.4,41,30.17,10.0,NNE,3.5,-,N/A,,Clear,30,2013-07-16 21:08:00
5:28 PM,91.4,66.2,43,30.16,10.0,NNE,4.6,-,N/A,,Clear,20,2013-07-16 21:28:00
5:48 PM,91.4,66.2,43,30.16,10.0,NNE,5.8,-,N/A,,Clear,20,2013-07-16 21:48:00
6:08 PM,91.4,66.2,43,30.16,10.0,NNE,3.5,-,N/A,,Clear,20,2013-07-16 22:08:00
6:28 PM,89.6,66.2,46,30.16,10.0,NNE,4.6,-,N/A,,Clear,20,2013-07-16 22:28:00
7:08 PM,89.6,69.8,52,30.16,10.0,Calm,Calm,-,N/A,,Clear,0,2013-07-16 23:08:00
7:28 PM,87.8,71.6,58,30.17,10.0,Calm,Calm,-,N/A,,Clear,0,2013-07-16 23:28:00
7:48 PM,87.8,68.0,52,30.17,10.0,Calm,Calm,-,N/A,,Clear,0,2013-07-16 23:48:00
8:08 PM,87.8,68.0,52,30.17,10.0,Calm,Calm,-,N/A,,Clear,0,2013-07-17 00:08:00
8:28 PM,86.0,68.0,55,30.17,10.0,Calm,Calm,-,N/A,,Clear,0,2013-07-17 00:28:00
8:48 PM,86.0,69.8,58,30.17,10.0,Calm,Calm,-,N/A,,Clear,0,2013-07-17 00:48:00
9:08 PM,84.2,69.8,62,30.18,10.0,Calm,Calm,-,N/A,,Clear,0,2013-07-17 01:08:00
9:28 PM,82.4,69.8,66,30.18,10.0,Calm,Calm,-,N/A,,Clear,0,2013-07-17 01:28:00
9:49 PM,82.4,71.6,70,30.19,10.0,Calm,Calm,-,N/A,,Clear,0,2013-07-17 01:49:00
10:09 PM,82.4,75.2,79,30.19,10.0,WSW,3.5,-,N/A,,Clear,250,2013-07-17 02:09:00
10:29 PM,82.4,77.0,84,30.18,10.0,Calm,Calm,-,N/A,,Clear,0,2013-07-17 02:29:00
10:49 PM,82.4,77.0,84,30.18,10.0,Calm,Calm,-,N/A,,Clear,0,2013-07-17 02:49:00
11:09 PM,82.4,77.0,84,30.19,10.0,Calm,Calm,-,N/A,,Clear,0,2013-07-17 03:09:00
11:29 PM,82.4,77.0,84,30.19,10.0,West,3.5,-,N/A,,Clear,260,2013-07-17 03:29:00
11:49 PM,82.4,78.8,89,30.19,10.0,West,4.6,-,N/A,,Clear,260,2013-07-17 03:49:00